Location: Ejido Mesa Redonda
(32.3758°N, 116.8815°W)
Time: 21:50:20
(UTC+00:00)

Daily predictions for brighter satellites

Satellite Brightness Start Highest point End
(mag) Time Altitude Azimuth Time Altitude Azimuth Time Altitude Azimuth
CZ-2C R/B 3.2 12:02:36 10° N 12:06:48 44° WNW 12:06:48 44° WNW
IRS-P3 4.0 12:02:52 10° NNE 12:08:12 85° WNW 12:11:55 20° SSW
CCE 1 Rocket 4.3 12:09:43 33° S 12:10:16 35° SSE 12:14:25 10° E
Meteor 1-5 Rocket 4.3 12:07:53 10° N 12:13:38 85° E 12:19:31 10° S
CZ-2C R/B 4.1 12:17:11 10° NNW 12:18:57 16° NW 12:18:57 16° NW
ATLAS CENTAUR R/B 3.9 12:23:17 10° NW 12:23:17 10° NW 12:23:22 10° NW
Hubble Space Telescope 2.4 12:23:15 20° SSW 12:23:15 20° SSW 12:25:53 10° SSE
CZ-2D R/B 3.4 12:21:50 10° N 12:26:05 67° WNW 12:28:55 20° SSW
Cosmos 1484 Rocket 3.7 12:26:13 10° NNW 12:28:59 29° WNW 12:28:59 29° WNW
Delta 128 4.4 12:28:20 29° WSW 12:31:07 53° S 12:36:07 10° ESE
SL-4 R/B 2.2 12:32:19 37° WSW 12:32:51 39° SW 12:36:16 10° SSE
Envisat 3.9 12:32:55 10° NNW 12:37:14 29° WNW 12:38:53 24° WSW
SWIFT 4.3 12:36:55 13° SSW 12:38:01 14° S 12:40:19 10° SSE
BlueWalker 3 2.1 12:37:55 10° NW 12:41:44 71° NE 12:45:33 10° SE
USA 276 2.8 12:41:54 30° WNW 12:42:20 31° NW 12:44:59 10° NNE
Cosmos 1607 4.1 12:38:23 10° SSW 12:44:27 76° ESE 12:50:37 10° NNE
SL-27 R/B 4.4 12:44:19 10° N 12:47:09 29° ENE 12:49:59 10° SE
COSMOS 2455 3.4 12:44:24 10° S 12:50:18 61° ESE 12:56:14 10° NNE
Cosmos 1151 Rocket 2.9 12:51:47 10° S 12:56:08 76° W 13:00:29 10° N
Meteor 1-10 Rocket 4.3 12:50:36 10° SSW 12:56:26 70° W 13:02:21 10° N
Meteor 1-14 Rocket 4.2 12:51:26 10° NNW 12:56:51 58° W 13:02:19 10° S
Lacrosse 5 rocket 2.5 13:00:58 16° W 13:01:55 17° WSW 13:04:19 10° SSW
H-2A R/B 2.5 12:58:24 10° NNE 13:03:16 60° E 13:08:06 10° S
Cosmos 972 Rocket 4.3 12:57:26 10° NNW 13:03:39 73° WSW 13:09:08 10° S
Aurora 2 Rocket 4.1 13:03:05 10° SSW 13:05:31 16° S 13:07:42 10° SE
SJ-12 3.9 13:03:27 10° N 13:07:24 61° WNW 13:11:20 10° SSW
Cosmos 1867 3.5 13:02:06 10° NNW 13:07:34 81° WSW 13:12:58 10° SSE
H-2A R/B 4.1 13:06:20 10° NNW 13:08:49 18° WNW 13:11:18 10° WSW
OAO 3 Rocket 3.2 13:04:12 11° WNW 13:08:58 83° SSW 13:13:54 10° ESE
Cosmos 1743 Rocket 4.1 13:05:15 10° NNW 13:09:21 37° W 13:13:26 10° SSW
ARIANE 5 R/B 4.0 13:08:49 10° NNW 13:12:18 18° WNW 13:15:46 10° WSW
CZ-2C R/B 2.6 13:10:08 10° N 13:13:44 60° WNW 13:17:16 10° SSW
Cosmos 1371 Rocket 3.9 13:10:02 10° NNW 13:15:09 66° WSW 13:20:15 10° S
Cosmos 864 Rocket 4.5 13:09:24 10° S 13:15:32 85° W 13:21:41 10° N
GP-B 3.6 13:11:37 10° NNW 13:15:40 36° W 13:19:43 10° SSW
PSLV R/B 3.9 13:11:56 10° N 13:15:58 44° WNW 13:20:02 10° SW
Sich 1 3.4 13:13:12 10° NNW 13:17:22 43° W 13:21:31 10° SSW
Cosmos 1633 Rocket 3.9 13:13:35 10° N 13:17:56 56° E 13:22:14 10° SSE
USA 234 3.6 13:12:44 10° NNE 13:19:02 51° NW 13:25:20 10° WSW
CZ-2C R/B 1.4 13:15:54 10° W 13:19:24 44° SSW 13:22:45 10° SE
Meteor 1-29 2.6 13:16:26 10° N 13:19:31 76° WNW 13:22:35 10° SSW
DMSP B5D2-2 4.4 13:14:57 10° S 13:19:54 43° W 13:24:52 10° NNW
Cosmos 1536 2.8 13:19:17 10° N 13:23:15 85° W 13:27:12 10° S
Cosmos 2056 Rocket 3.6 13:18:25 10° NNW 13:23:30 57° WSW 13:28:39 10° S
